Location: Grasslands National Park East Block
(49.0708°N, 106.5295°W)
Time: 12:24:13
(UTC-06:00)

SR - Visible Passes

Search period start: 21 October 2019 00:00
Search period end: 31 October 2019 00:00
Orbit: 574 x 881 km, 66.7° (Epoch: 21 October)

Date Brightness Start Highest point End Pass type
(mag) Time Alt. Az. Time Alt. Az. Time Alt. Az.
21 Oct ? 03:30:02 13° N 03:30:11 13° N 03:32:50 10° NNE visible
21 Oct ? 05:10:13 10° NNW 05:14:33 21° NNE 05:18:57 10° ENE visible
21 Oct ? 06:52:00 10° NNW 06:57:50 61° NE 07:03:42 10° SE visible
22 Oct ? 02:41:49 11° NNE 02:41:49 11° NNE 02:42:27 10° NNE visible
22 Oct ? 04:21:15 12° NNW 04:24:11 16° NNE 04:27:51 10° ENE visible
22 Oct ? 06:02:25 10° NNW 06:07:55 40° NE 06:13:28 10° ESE visible
23 Oct ? 03:33:05 14° N 03:33:43 14° N 03:36:43 10° NE visible
23 Oct ? 05:12:53 10° NNW 05:17:50 28° NE 05:22:52 10° E visible
23 Oct ? 06:54:45 10° NW 07:00:41 88° WSW 07:06:37 10° SSE visible
24 Oct ? 02:44:59 12° NNE 02:44:59 12° NNE 02:45:53 10° NNE visible
24 Oct ? 04:24:25 14° NNW 04:27:36 20° NNE 04:31:56 10° ENE visible
24 Oct ? 06:05:06 10° NNW 06:10:56 59° NE 06:16:46 10° SE visible
25 Oct ? 03:36:23 16° N 03:37:13 16° NNE 03:40:50 10° NE visible
25 Oct ? 05:15:49 11° NNW 05:21:00 38° NE 05:26:30 10° ESE visible
25 Oct ? 06:57:37 10° NW 07:03:24 55° WSW 07:09:07 10° SSE visible
26 Oct ? 02:48:27 13° NNE 02:48:27 13° NNE 02:49:44 10° NE visible
26 Oct ? 04:27:53 18° N 04:30:53 27° NNE 04:35:52 10° E visible
26 Oct ? 06:07:50 10° NW 06:13:48 89° ENE 06:19:42 10° SE visible
27 Oct ? 03:40:03 20° NNE 03:40:38 20° NNE 03:44:56 10° ENE visible
27 Oct ? 05:19:31 17° NNW 05:24:01 56° NE 05:29:50 10° SE visible
27 Oct ? 07:00:42 10° NW 07:05:57 34° WSW 07:11:09 10° S visible
28 Oct ? 02:52:23 14° NE 02:52:23 14° NE 02:53:48 10° NE visible
28 Oct ? 04:31:50 28° N 04:34:03 37° NE 04:39:32 10° ESE visible
28 Oct ? 06:11:18 13° NW 06:16:31 58° WSW 06:22:15 10° SSE visible
29 Oct ? 03:44:19 26° NE 03:44:19 26° NE 03:48:52 10° E visible
29 Oct ? 05:23:47 30° NNW 05:26:54 86° ENE 05:32:48 10° SE visible
29 Oct ? 07:04:09 10° WNW 07:08:21 20° WSW 07:12:31 10° SSW visible
30 Oct ? 02:56:59 13° ENE 02:56:59 13° ENE 02:57:54 10° ENE visible
30 Oct ? 04:36:27 52° NNE 04:37:06 54° NE 04:42:53 10° SE visible
30 Oct ? 06:15:57 21° WNW 06:19:05 35° WSW 06:24:20 10° S visible
30 Oct ? 19:08:31 10° SE 19:08:41 10° SE 19:08:41 10° SE visible
30 Oct ? 20:46:43 10° SSW 20:48:11 20° SSW 20:48:11 20° SSW visible
